[[{"header":{"parameterUnit":"m.s-1","parameterCategory":1,"la1":30.2991,"la2":30.254,"lo1":-89.0895,"lo2":-89.0444,"dy":0.0017,"dx":0.0017,"nx":28,"ny":28,"refTime":"2024-03-12T21:00:00:Z","depth":0,"parameterNumber":2,"parameterNumberName":"U-component_of_WINDS"},"data":[0,0,0,0,0,0,0,0,0,0,0,0,0,0,0,0,0,0,0,0,0,0,0,0,0,0,0,0,0,0,0,0,0,0,0,0,0,0,0,0,0,0,0,0,0,0,0,0,0,0,0,0,0,0,0,0,0,0,-5.0984,-5.0985,0,-5.1063,-5.1064,-5.1065,-5.1031,-5.1029,-5.1027,-5.1026,-5.1102,-5.1106,-5.111,0,0,0,0,0,0,0,0,0,0,0,0,0,-5.0802,-5.0805,-5.0984,-5.0985,-5.0986,-5.1063,-5.1064,-5.1065,-5.1032,-5.1029,-5.1027,-5.1025,-5.1101,-5.1106,-5.111,0,0,0,0,0,0,0,0,0,0,0,0,0,-5.0881,-5.0806,-5.0984,-5.0979,-5.0979,-5.1062,-5.1064,-5.1065,-5.1032,-5.1029,-5.1026,-5.1024,-5.11,-5.1105,-5.1111,-5.1203,0,0,-5.1128,-5.1131,0,0,0,0,0,0,0,0,-5.0876,-5.0887,-5.0978,-5.0979,-5.098,-5.1034,-5.1028,-5.1111,-5.1033,-5.1012,-5.1026,-5.1022,-5.1082,-5.1089,-5.111,-5.1206,-5.1209,-5.1129,-5.1132,-5.1135,-5.1136,0,0,0,0,0,0,0,-5.0871,-5.0884,-5.1015,-5.098,-5.098,-5.0972,-5.098,-5.1043,-5.1061,-5.1013,-5.1011,-5.1021,-5.1081,-5.1104,-5.1111,-5.1211,-5.1129,-5.1134,-5.1137,-5.1139,-5.1388,-5.1391,0,0,0,0,0,0,-5.0866,-5.0879,-5.1012,-5.1017,-5.092,-5.0977,-5.0986,-5.102,-5.1061,-5.1064,-5.1024,-5.1019,-5.1096,-5.1105,-5.1114,-5.1224,-5.1135,-5.114,-5.1143,-5.1385,-5.1388,-5.1392,0,0,0,0,0,0,-5.0862,-5.0878,-5.1009,-5.0948,-5.0964,-5.0983,-5.1021,-5.1023,-5.1045,-5.1069,-5.1071,-5.1043,-5.1094,-5.1106,-5.1181,-5.1226,-5.1142,-5.1148,-5.1381,-5.1386,-5.139,-5.1444,0,0,0,0,0,0,-5.0857,-5.0877,-5.0912,-5.0949,-5.0967,-5.1076,-5.1024,-5.1026,-5.1056,-5.1051,-5.1088,-5.1091,-5.1093,-5.1173,-5.1187,-5.1232,-5.1152,-5.1377,-5.1383,-5.1389,-5.1438,-5.145,-5.146,0,0,0,0,0,-5.0851,-5.0923,-5.0914,-5.093,-5.1012,-5.1079,-5.1089,-5.109,-5.1059,-5.1095,-5.111,-5.109,-5.122,-5.1181,-5.1196,-5.1244,-5.1374,-5.1381,-5.1388,-5.1434,-5.1448,-5.146,0,0,0,0,0,0,-5.0888,-5.0927,-5.0918,-5.1005,-5.1039,-5.1073,-5.1117,-5.1105,-5.1147,-5.1141,-5.114,-5.1149,-5.1227,-5.1243,-5.12,-5.1336,-5.1292,-5.1303,-5.1321,-5.1335,-5.1346,-5.1338,-5.1157,0,0,0,0,0,-5.0907,-5.0959,-5.099,-5.1064,-5.1082,-5.1097,-5.1126,-5.1125,-5.1159,-5.1173,-5.1193,-5.1227,-5.1275,-5.1307,-5.1352,-5.1443,-5.1449,-5.1483,-5.1494,-5.1503,-5.1511,-5.156,-5.1575,-5.1415,-5.1415,-5.1415,0,0,-5.0945,-5.0973,-5.1005,-5.1072,-5.1098,-5.1151,-5.1109,-5.1166,-5.1205,-5.1181,-5.1253,-5.1271,-5.1308,-5.1391,-5.1429,-5.1407,-5.1557,-5.1512,-5.1519,-5.1522,-5.1569,-5.1584,-5.1597,-5.142,-5.1419,-5.1419,0,0,-5.1041,-5.1069,-5.1133,-5.1161,-5.1203,-5.1213,-5.1229,-5.1266,-5.1277,-5.135,-5.1334,-5.138,-5.1463,-5.1491,-5.1516,-5.1628,-5.161,-5.1643,-5.1698,-5.1746,-5.1758,-5.1769,-5.1808,-5.1822,-5.1651,-5.1652,-5.1652,0,-5.1082,-5.1162,-5.1167,-5.1226,-5.1256,-5.124,-5.1305,-5.1332,-5.1385,-5.1406,-5.1382,-5.1488,-5.1512,-5.1601,-5.1629,-5.165,-5.1667,-5.1636,-5.1757,-5.1768,-5.1778,-5.1814,-5.1829,-5.1655,-5.1655,-5.1654,-5.1654,0,-5.1211,-5.1267,-5.1314,-5.1369,-5.1404,-5.1466,-5.1479,-5.1515,-5.1512,-5.1525,-5.16,-5.163,-5.1681,-5.1704,-5.17,-5.1793,-5.1779,-5.1756,-5.1711,-5.1797,-5.1831,-5.1845,-5.166,-5.1659,-5.1658,-5.1657,0,0,-5.1327,-5.1387,-5.1404,-5.1429,-5.1476,-5.1519,-5.1581,-5.1634,-5.1663,-5.1703,-5.1753,-5.1827,-5.1807,-5.1835,-5.1836,-5.1878,-5.1964,-5.185,-5.1851,-5.1869,-5.2067,-5.2081,-5.2098,-5.1955,-5.1958,-5.196,-5.2063,0,-5.1425,-5.1535,-5.1542,-5.1641,-5.1692,-5.1681,-5.1735,-5.1769,-5.1784,-5.183,-5.1846,-5.1897,-5.1868,-5.1885,-5.1927,-5.1944,-5.2003,-5.1938,-5.2,-5.2002,-5.1987,-5.2116,-5.213,-5.2226,-5.2077,-5.2079,-5.2081,0,-5.1553,-5.1598,-5.1702,-5.1744,-5.1766,-5.1814,-5.1864,-5.1908,-5.1948,-5.1956,-5.199,-5.1985,-5.2048,-5.2005,-5.2092,-5.2047,-5.2074,-5.2087,-5.2091,-5.2094,-5.2044,-5.2119,-5.2257,-5.227,-5.2102,-5.2101,-5.2099,0,-5.1625,-5.1712,-5.1786,-5.1808,-5.1859,-5.1893,-5.1916,-5.1953,-5.1984,-5.2029,-5.2049,-5.21,-5.2126,-5.2165,-5.2175,-5.2143,-5.2261,-5.2219,-5.2268,-5.2268,-5.2289,-5.2287,-5.2431,-5.2313,-5.2313,-5.2312,-5.2312,0,-5.1731,-5.1794,-5.1819,-5.1864,-5.1935,-5.1945,-5.2015,-5.2035,-5.2069,-5.2117,-5.2111,-5.2156,-5.2167,-5.2215,-5.2223,-5.2293,-5.2306,-5.2313,-5.2313,-5.2312,-5.231,-5.2326,-5.2318,-5.2316,-5.2315,-5.2315,-5.2314,0,-5.1821,-5.1841,-5.192,-5.1963,-5.1976,-5.2026,-5.2063,-5.2106,-5.2122,-5.2183,-5.2198,-5.2223,-5.2279,-5.2294,-5.236,-5.2365,-5.2448,-5.2443,-5.2434,-5.2433,-5.248,-5.2475,-5.2636,-5.2657,-5.2528,-5.253,-5.2531,0,-5.1886,-5.1935,-5.1985,-5.2018,-5.2042,-5.2095,-5.2129,-5.2141,-5.2176,-5.2227,-5.2264,-5.232,-5.2364,-5.2454,-5.2477,-5.2529,-5.2524,-5.2577,-5.2531,-5.2528,-5.2522,-5.2517,-5.2522,-5.2584,-5.2586,-5.2587,-5.2588,0,-5.1998,-5.2006,-5.2055,-5.2109,-5.215,-5.2192,-5.2232,-5.226,-5.2278,-5.2318,-5.2376,-5.2411,-5.2481,-5.2536,-5.2589,-5.2611,-5.2602,-5.2603,-5.2617,-5.2613,-5.2605,-5.2608,-5.2455,-5.2598,-5.2597,-5.2596,-5.2596,-5.2595,-5.2075,-5.2118,-5.2161,-5.2216,-5.2249,-5.2288,-5.2331,-5.2355,-5.2404,-5.2462,-5.2468,-5.253,-5.2571,-5.2641,-5.2667,-5.2716,-5.2699,-5.272,-5.2724,-5.2728,-5.2731,-5.2601,-5.2726,-5.2726,-5.2725,-5.2725,-5.2725,0,-5.2184,-5.2212,-5.2264,-5.2322,-5.2367,-5.2359,-5.2404,-5.2441,-5.2497,-5.2536,-5.2582,-5.265,-5.2704,-5.2734,-5.2788,-5.2821,-5.2819,-5.2835,-5.283,-5.2836,-5.2744,-5.2725,-5.2836,-5.2836,-5.2836,-5.2836,-5.2836,-5.2836,-5.2246,-5.2319,-5.2333,-5.2423,-5.245,-5.2513,-5.254,-5.2576,-5.2607,-5.2684,-5.273,-5.275,-5.2785,-5.2843,-5.2893,-5.29,-5.2919,-5.2936,-5.2941,-5.2854,-5.2842,-5.2831,-5.2814,-5.2941,-5.2941,-5.3029,-5.303,-5.303]},{"header":{"parameterUnit":"m.s-1","parameterCategory":1,"la1":30.2991,"la2":30.254,"lo1":-89.0895,"lo2":-89.0444,"dy":0.0017,"dx":0.0017,"nx":28,"ny":28,"refTime":"2024-03-12T21:00:00:Z","depth":0,"parameterNumber":3,"parameterNumberName":"V-component_of_WINDS"},"data":[0,0,0,0,0,0,0,0,0,0,0,0,0,0,0,0,0,0,0,0,0,0,0,0,0,0,0,0,0,0,0,0,0,0,0,0,0,0,0,0,0,0,0,0,0,0,0,0,0,0,0,0,0,0,0,0,0,0,1.9592,1.9592,0,1.9608,1.9608,1.9608,1.9631,1.9632,1.9632,1.9633,1.9644,1.9644,1.9644,0,0,0,0,0,0,0,0,0,0,0,0,0,1.9579,1.9579,1.9592,1.9592,1.9592,1.9608,1.9608,1.9608,1.9631,1.9632,1.9632,1.9633,1.9644,1.9644,1.9644,0,0,0,0,0,0,0,0,0,0,0,0,0,1.9588,1.9579,1.9592,1.9606,1.9607,1.9608,1.9608,1.9608,1.9631,1.9632,1.9633,1.9633,1.9644,1.9644,1.9644,1.963,0,0,1.9643,1.9643,0,0,0,0,0,0,0,0,1.9588,1.9589,1.9603,1.9605,1.9606,1.9618,1.9608,1.9615,1.9631,1.9622,1.9633,1.9633,1.9635,1.9635,1.9637,1.9631,1.9631,1.9643,1.9643,1.9643,1.9643,0,0,0,0,0,0,0,1.9587,1.9588,1.9598,1.9604,1.9605,1.9611,1.9613,1.9609,1.9624,1.9623,1.9625,1.9626,1.9635,1.9637,1.9637,1.9631,1.9643,1.9643,1.9643,1.9643,1.9619,1.9618,0,0,0,0,0,0,1.9585,1.9588,1.9597,1.9598,1.9599,1.961,1.9613,1.9614,1.9625,1.9627,1.9626,1.9627,1.9637,1.9637,1.9638,1.9625,1.9643,1.9643,1.9643,1.9619,1.9619,1.9618,0,0,0,0,0,0,1.9585,1.9586,1.9597,1.9594,1.9595,1.961,1.9611,1.9614,1.9615,1.9627,1.9629,1.9625,1.9637,1.9638,1.9633,1.9625,1.9643,1.9643,1.962,1.9619,1.9618,1.9597,0,0,0,0,0,0,1.9584,1.9585,1.9581,1.9593,1.9596,1.9592,1.9611,1.9614,1.9616,1.9618,1.9626,1.9628,1.9638,1.9633,1.9633,1.9625,1.9643,1.9621,1.9619,1.9618,1.9599,1.9596,1.9593,0,0,0,0,0,1.9584,1.9572,1.958,1.9581,1.959,1.9592,1.9593,1.9606,1.9615,1.961,1.9618,1.9628,1.9626,1.9632,1.9632,1.9625,1.9621,1.962,1.9619,1.96,1.9596,1.9593,0,0,0,0,0,0,1.9555,1.9574,1.9583,1.9576,1.9583,1.9596,1.959,1.9601,1.9604,1.9605,1.962,1.9621,1.9615,1.9619,1.9626,1.9614,1.9625,1.9624,1.9611,1.9608,1.9605,1.9604,1.9643,0,0,0,0,0,1.9549,1.955,1.9565,1.9557,1.9561,1.9575,1.9576,1.9586,1.9593,1.9595,1.9602,1.9607,1.9609,1.9608,1.961,1.96,1.9603,1.9595,1.9592,1.959,1.9588,1.9586,1.9583,1.9614,1.9614,1.9614,0,0,1.9533,1.9544,1.9543,1.9552,1.9558,1.9559,1.9577,1.9576,1.9576,1.9594,1.9591,1.9597,1.9604,1.9597,1.9595,1.9601,1.9581,1.9588,1.9587,1.9586,1.9585,1.9582,1.9579,1.9613,1.9613,1.9613,0,0,1.9507,1.9515,1.9511,1.9518,1.9529,1.9539,1.9538,1.9551,1.9556,1.9554,1.9569,1.9569,1.957,1.9575,1.9577,1.9558,1.9568,1.9558,1.9543,1.9541,1.9539,1.9537,1.9531,1.9529,1.9556,1.9556,1.9556,0,1.9487,1.949,1.9506,1.9506,1.951,1.9529,1.9525,1.9531,1.954,1.9542,1.955,1.9554,1.9559,1.9556,1.9551,1.9552,1.9552,1.9556,1.9538,1.9536,1.9534,1.9529,1.9527,1.9555,1.9555,1.9555,1.9556,0,1.9465,1.9467,1.9462,1.9475,1.9478,1.9475,1.9492,1.9493,1.9503,1.9513,1.9512,1.952,1.9525,1.9525,1.9533,1.9523,1.9527,1.9536,1.9547,1.953,1.9526,1.9524,1.9553,1.9554,1.9554,1.9555,0,0,1.9418,1.9444,1.9442,1.9449,1.9464,1.9465,1.9464,1.9472,1.9473,1.948,1.948,1.9482,1.9492,1.9495,1.9505,1.9503,1.9489,1.9513,1.9513,1.9509,1.9481,1.9474,1.9472,1.9497,1.9496,1.9496,1.9481,0,1.9396,1.9397,1.9414,1.9411,1.9414,1.9434,1.9433,1.9443,1.9452,1.9456,1.9466,1.9468,1.948,1.9483,1.9481,1.9491,1.9484,1.9493,1.9496,1.9496,1.9495,1.9469,1.9461,1.9446,1.9479,1.9479,1.9478,0,1.9368,1.9378,1.9375,1.9394,1.9396,1.9395,1.9405,1.9408,1.9419,1.9427,1.9432,1.9445,1.9445,1.9457,1.9459,1.9465,1.9468,1.9473,1.9473,1.9473,1.9486,1.947,1.9442,1.944,1.9475,1.9476,1.9476,0,1.9337,1.9348,1.9349,1.9354,1.9375,1.9375,1.9383,1.9396,1.94,1.9408,1.9412,1.9419,1.9423,1.9428,1.9442,1.9449,1.9443,1.9455,1.9449,1.9449,1.9446,1.9446,1.9419,1.9447,1.9447,1.9447,1.9447,0,1.931,1.9307,1.9336,1.9336,1.9335,1.9355,1.9353,1.9363,1.9375,1.9378,1.9395,1.9397,1.9416,1.942,1.9431,1.9432,1.9433,1.9439,1.9442,1.9437,1.9437,1.9439,1.9441,1.9447,1.9447,1.9447,1.9447,0,1.9273,1.9292,1.9294,1.9316,1.9322,1.932,1.9338,1.9339,1.9352,1.9355,1.9357,1.9376,1.9382,1.9398,1.9407,1.9415,1.9413,1.9418,1.9409,1.9411,1.9405,1.9405,1.9378,1.9376,1.9405,1.9405,1.9405,0,1.9255,1.9254,1.9277,1.9282,1.929,1.9297,1.9303,1.9323,1.9328,1.9343,1.9343,1.9351,1.9359,1.9368,1.9382,1.939,1.9396,1.9386,1.9397,1.9394,1.9397,1.9397,1.9398,1.9383,1.9383,1.9382,1.9382,0,1.922,1.9231,1.9239,1.9252,1.926,1.927,1.9281,1.9283,1.9306,1.9311,1.9319,1.9326,1.9338,1.9346,1.9357,1.9365,1.9377,1.9379,1.9378,1.9374,1.9369,1.9373,1.9403,1.9379,1.9379,1.9379,1.938,1.938,1.9193,1.9195,1.9213,1.9222,1.9234,1.9245,1.9248,1.9263,1.9271,1.9284,1.9295,1.9302,1.9316,1.9333,1.9341,1.9347,1.9353,1.9351,1.9351,1.935,1.9349,1.9369,1.9348,1.9349,1.9349,1.9349,1.9349,0,1.9161,1.9174,1.9183,1.9201,1.9209,1.9223,1.9237,1.9242,1.925,1.9263,1.9271,1.9282,1.9291,1.9307,1.9318,1.932,1.9326,1.9322,1.9322,1.9324,1.9342,1.9342,1.9317,1.9317,1.9317,1.9317,1.9317,1.9317,1.9145,1.915,1.9163,1.9174,1.9187,1.9197,1.9204,1.9214,1.9225,1.9237,1.9246,1.9258,1.9272,1.9285,1.9294,1.9299,1.9302,1.9296,1.9303,1.9319,1.9322,1.9325,1.9325,1.9297,1.9297,1.9284,1.9284,1.9284]}]]